Home > Weather > Faridabad > Past weeks

Flag for India Weather for the Past 2 Weeks in Faridabad, Haryana, India

Now
61 °F

Haze.


Feels Like: 61 °F
Forecast: 50 / 69 °F
Wind: 5 mph from North

Location: New Delhi Palam Airport

Current Time: Feb 7, 2016 at 11:55:44 PM

Latest Report: Feb 7, 2016 at 9:30 PM


Visibility: 1 mi

Pressure: 30.04 "Hg

Humidity: 72%

Dew point: 52 °F

Location of FaridabadLocation

Historic Weather in Faridabad — Graph

°F

Faridabad Temperature Yesterday

Maximum temperature yesterday: 75 °F (at 2:30 PM)
Minimum temperature yesterday: 46 °F (at 5:30 AM)
Average temperature yesterday: 61 °F

High & Low Weather Summary for the Past Weeks

 TemperatureHumidityPressure
High79 °F (Jan 30, 1:30 PM)100% (Jan 24, 3:00 AM)30.15 "Hg (Jan 24, 3:00 AM)
Low43 °F (Jan 24, 8:00 AM)25% (Feb 4, 2:30 PM)29.86 "Hg (Feb 6, 4:30 PM)
Average59 °F68%30.02 "Hg
* Reported Jan 23 9:30 PM — Feb 7 9:30 PM, Faridabad, Weather by CustomWeather, © 2016

Note: Actual official high and low records may vary slightly from our data, if they occured in-between our weather recording intervals... More about our weather records

Advertising

Faridabad Weather History for the Previous 24 Hours

 ConditionsComfort  
Time TempWeatherWind HumidityBarometerVisibility
9:30 PM
Sun, Feb 7
61 °FHaze.5 mph72%30.04 "Hg1 mi
9:00 PM61 °FHaze.5 mph72%30.01 "Hg1 mi
8:30 PM61 °FHaze.5 mph72%30.01 "Hg1 mi
8:00 PM63 °FHaze.3 mph68%30.01 "Hg1 mi
7:30 PM64 °FHaze.5 mph64%29.98 "Hg1 mi
7:00 PM64 °FHaze.5 mph64%29.98 "Hg1 mi
6:30 PM64 °FHaze.5 mph64%29.98 "Hg1 mi
5:30 PM66 °FHaze.6 mph60%29.95 "Hg1 mi
5:00 PM68 °FHaze.8 mph53%29.95 "Hg1 mi
4:30 PM68 °FHaze.8 mph53%29.95 "Hg1 mi
4:00 PM70 °FHaze.9 mph50%29.95 "Hg1 mi
3:30 PM70 °FHaze.9 mph53%29.95 "Hg1 mi
3:00 PM70 °FScattered clouds.8 mph53%29.95 "Hg1 mi
2:30 PM70 °FScattered clouds.8 mph57%29.95 "Hg1 mi
2:00 PM70 °FScattered clouds.8 mph57%29.95 "Hg1 mi
1:30 PM68 °FScattered clouds.9 mph60%29.98 "Hg1 mi
1:00 PM68 °FScattered clouds.9 mph60%29.98 "Hg1 mi
12:30 PM66 °FScattered clouds.9 mph60%30.01 "Hg1 mi
11:30 AM66 °FScattered clouds.9 mph60%30.04 "Hg1 mi
11:00 AM63 °FMore clouds than sun.8 mph73%30.04 "Hg1 mi
10:30 AM63 °FFog.8 mph77%30.04 "Hg1 mi
Weather by CustomWeather, © 2016

See weather overviewHow to use our weather pages